Year,Month,Day,Hour,Minute,Value (Times are PST for barometer in hPa)
2022,01,22,00,00,1039.28
2022,01,22,00,01,1039.25
2022,01,22,00,02,1039.25
2022,01,22,00,03,1039.22
2022,01,22,00,04,1039.22
2022,01,22,00,05,1039.18
2022,01,22,00,06,1039.22
2022,01,22,00,07,1039.22
2022,01,22,00,08,1039.26
2022,01,22,00,09,1039.32
2022,01,22,00,10,1039.33
2022,01,22,00,11,1039.38
2022,01,22,00,12,1039.40
2022,01,22,00,13,1039.49
2022,01,22,00,14,1039.49
2022,01,22,00,15,1039.52
2022,01,22,00,16,1039.52
2022,01,22,00,17,1039.55
2022,01,22,00,18,1039.55
2022,01,22,00,19,1039.56
2022,01,22,00,20,1039.59
2022,01,22,00,21,1039.59
2022,01,22,00,22,1039.62
2022,01,22,00,23,1039.59
2022,01,22,00,24,1039.59
2022,01,22,00,25,1039.62
2022,01,22,00,26,1039.62
2022,01,22,00,27,1039.59
2022,01,22,00,28,1039.55
2022,01,22,00,29,1039.55
2022,01,22,00,30,1039.52
2022,01,22,00,31,1039.54
2022,01,22,00,32,1039.49
2022,01,22,00,33,1039.49
2022,01,22,00,34,1039.48
2022,01,22,00,35,1039.39
2022,01,22,00,36,1039.42
2022,01,22,00,37,1039.41
2022,01,22,00,38,1039.39
2022,01,22,00,39,1039.41
2022,01,22,00,40,1039.32
2022,01,22,00,41,1039.32
2022,01,22,00,42,1039.34
2022,01,22,00,43,1039.28
2022,01,22,00,44,1039.25
2022,01,22,00,45,1039.21
2022,01,22,00,46,1039.19
2022,01,22,00,47,1039.21
2022,01,22,00,48,1039.19
2022,01,22,00,49,1039.22
2022,01,22,00,50,1039.23
2022,01,22,00,51,1039.29
2022,01,22,00,52,1039.32
2022,01,22,00,53,1039.35
2022,01,22,00,54,1039.31
2022,01,22,00,55,1039.28
2022,01,22,00,56,1039.27
2022,01,22,00,57,1039.22
2022,01,22,00,58,1039.21
2022,01,22,00,59,1039.14
2022,01,22,01,00,1039.11
2022,01,22,01,01,1039.08
2022,01,22,01,02,1039.09
2022,01,22,01,03,1039.15
2022,01,22,01,04,1039.15
2022,01,22,01,05,1039.14
2022,01,22,01,06,1039.11
2022,01,22,01,07,1039.08
2022,01,22,01,08,1039.04
